User: anonymous   Login
Location: Unspecified
(43.4680°N, 87.1740°E)
Time: 19:33:32
(UTC+00:00)
Language:

Cosmos 1408 - Orbit

View from above orbital plane
View from above orbital plane
View from above satellite
View from above satellite

Ground track
Ground track

The orbit data is extracted from the following two-line orbital elements,

1 13552U 82092A   21171.52888952  .00001202  00000-0  41547-4 0  9996
2 13552  82.5675 271.0242 0015781 272.2326  87.7107 15.28776263120263
Epoch (UTC): 20 June 2021 12:41:36
Eccentricity: 0.0015781
inclination: 82.5675°
perigee height: 468 km
apogee height: 490 km
right ascension of ascending node: 271.0242°
argument of perigee: 272.2326°
revolutions per day: 15.28776263
mean anomaly at epoch: 87.7107°
orbit number at epoch: 12026

The dashed part of the orbit path shows where the satellite is in the earth's shadow,  

DLR